STARLINK-1275 (45407 NORAD) Tracking and Keplerian Element Data

This shows tracking and keplerian element data for the satellite.

Feedback or suggestion? Click here.




ElementValue
Catalog45407
NameSTARLINK-1275
Epoch Orbit1060
Epoch Day143.83334491
Epoch Year2020
RAAN294.5031
Inclination52.999
Eccentricity0.0001399
Argument of Perigee19.9508
Mean Anonmoly275.0307
Mean Motion15.6274827
Decay Rate0.00049554
L11 45407U 20019AZ 20143.83334491 .00049554 00000-0 54381-3 0 9998
L22 45407 52.9990 294.5031 0001399 19.9508 275.0307 15.62748270 10607

Live tracking and technical data element details for STARLINK-1275 (NORAD 45407). STARLINK-1275 can be tracked NOW for your location showing map with azimuth and elevation plus other details from your city location.

Track the satellite on the map from your city or location and see movement details for azimuth, elevation, latitude, longitude, range, height, and movement on the map or in text.







IsCatalogInMostPopularTable: catalog: 45407, numindb: 23
Update: records affected: 1



GetName: 45407 STARLINK-1275

Hit Count: updated at: Mon, 25 May 2020 07:39:00 GMT